Year,Month,Day,Hour,Minute,Value (Times are PST for temperature in C)
2015,07,04,00,00,22.60
2015,07,04,00,01,22.60
2015,07,04,00,02,22.60
2015,07,04,00,03,22.60
2015,07,04,00,04,22.50
2015,07,04,00,05,22.50
2015,07,04,00,06,22.40
2015,07,04,00,07,22.40
2015,07,04,00,08,22.40
2015,07,04,00,09,22.40
2015,07,04,00,10,22.40
2015,07,04,00,11,22.30
2015,07,04,00,12,22.30
2015,07,04,00,13,22.30
2015,07,04,00,14,22.30
2015,07,04,00,15,22.30
2015,07,04,00,16,22.30
2015,07,04,00,17,22.30
2015,07,04,00,18,22.30
2015,07,04,00,19,22.30
2015,07,04,00,20,22.30
2015,07,04,00,21,22.30
2015,07,04,00,22,22.30
2015,07,04,00,23,22.30
2015,07,04,00,24,22.30
2015,07,04,00,25,22.30
2015,07,04,00,26,22.30
2015,07,04,00,27,22.30
2015,07,04,00,28,22.30
2015,07,04,00,29,22.30
2015,07,04,00,30,22.30
2015,07,04,00,31,22.20
2015,07,04,00,32,22.20
2015,07,04,00,33,22.20
2015,07,04,00,34,22.20
2015,07,04,00,35,22.20
2015,07,04,00,36,22.20
2015,07,04,00,37,22.20
2015,07,04,00,38,22.20
2015,07,04,00,39,22.20
2015,07,04,00,40,22.20
2015,07,04,00,41,22.20
2015,07,04,00,42,22.20
2015,07,04,00,43,22.20
2015,07,04,00,44,22.20
2015,07,04,00,45,22.20
2015,07,04,00,46,22.20
2015,07,04,00,47,22.20
2015,07,04,00,48,22.20
2015,07,04,00,49,22.20
2015,07,04,00,50,22.20
2015,07,04,00,51,22.20
2015,07,04,00,52,22.20
2015,07,04,00,53,22.20
2015,07,04,00,54,22.20
2015,07,04,00,55,22.20
2015,07,04,00,56,22.10
2015,07,04,00,57,22.10
2015,07,04,00,58,22.10
2015,07,04,00,59,22.10
2015,07,04,01,00,22.00
2015,07,04,01,01,21.90
2015,07,04,01,02,21.90
2015,07,04,01,03,21.90
2015,07,04,01,04,21.80
2015,07,04,01,05,21.80
2015,07,04,01,06,21.70
2015,07,04,01,07,21.70
2015,07,04,01,08,21.70
2015,07,04,01,09,21.60
2015,07,04,01,10,21.60
2015,07,04,01,11,21.50
2015,07,04,01,12,21.50
2015,07,04,01,13,21.50
2015,07,04,01,14,21.40
2015,07,04,01,15,21.40
2015,07,04,01,16,21.40
2015,07,04,01,17,21.40
2015,07,04,01,18,21.40
2015,07,04,01,19,21.40
2015,07,04,01,20,21.40
2015,07,04,01,21,21.40
2015,07,04,01,22,21.40
2015,07,04,01,23,21.40
2015,07,04,01,24,21.50
2015,07,04,01,25,21.40
2015,07,04,01,26,21.50
2015,07,04,01,27,21.50
2015,07,04,01,28,21.50
2015,07,04,01,29,21.60
2015,07,04,01,30,21.60
2015,07,04,01,31,21.60
2015,07,04,01,32,21.60
2015,07,04,01,33,21.60
2015,07,04,01,34,21.70
2015,07,04,01,35,21.70
2015,07,04,01,36,21.70
2015,07,04,01,37,21.70
2015,07,04,01,38,21.70
2015,07,04,01,39,21.70
2015,07,04,01,40,21.70
2015,07,04,01,41,21.70
2015,07,04,01,42,21.70
2015,07,04,01,43,21.70
2015,07,04,01,44,21.70
2015,07,04,01,45,21.70
2015,07,04,01,46,21.70
2015,07,04,01,47,21.70
2015,07,04,01,48,21.70
2015,07,04,01,49,21.70
2015,07,04,01,50,21.70
2015,07,04,01,51,21.70
2015,07,04,01,52,21.70
2015,07,04,01,53,21.70
2015,07,04,01,54,21.70
2015,07,04,01,55,21.80
2015,07,04,01,56,21.80
2015,07,04,01,57,21.80
2015,07,04,01,58,21.80
2015,07,04,01,59,21.80
2015,07,04,02,00,21.80
2015,07,04,02,01,21.80
2015,07,04,02,02,21.70
2015,07,04,02,03,21.70
2015,07,04,02,04,21.70
2015,07,04,02,05,21.70
2015,07,04,02,06,21.70
2015,07,04,02,07,21.60
2015,07,04,02,08,21.60
2015,07,04,02,09,21.60
2015,07,04,02,10,21.50
2015,07,04,02,11,21.40
2015,07,04,02,12,21.40
2015,07,04,02,13,21.40
2015,07,04,02,14,21.30
2015,07,04,02,15,21.30
2015,07,04,02,16,21.20
2015,07,04,02,17,21.20
2015,07,04,02,18,21.10
2015,07,04,02,19,21.10
2015,07,04,02,20,21.10
2015,07,04,02,21,21.00
2015,07,04,02,22,21.00
2015,07,04,02,23,20.90
2015,07,04,02,24,20.90
2015,07,04,02,25,20.90
2015,07,04,02,26,20.80
2015,07,04,02,27,20.80
2015,07,04,02,28,20.80
2015,07,04,02,29,20.80
2015,07,04,02,30,20.70
2015,07,04,02,31,20.70
2015,07,04,02,32,20.70
2015,07,04,02,33,20.70
2015,07,04,02,34,20.70
2015,07,04,02,35,20.70
2015,07,04,02,36,20.60
2015,07,04,02,37,20.60
2015,07,04,02,38,20.60
2015,07,04,02,39,20.60
2015,07,04,02,40,20.50
2015,07,04,02,41,20.50
2015,07,04,02,42,20.50
2015,07,04,02,43,20.40
2015,07,04,02,44,20.40
2015,07,04,02,45,20.40
2015,07,04,02,46,20.40
2015,07,04,02,47,20.40
2015,07,04,02,48,20.40
2015,07,04,02,49,20.40
2015,07,04,02,50,20.40
2015,07,04,02,51,20.40
2015,07,04,02,52,20.40
2015,07,04,02,53,20.40
2015,07,04,02,54,20.40
2015,07,04,02,55,20.40
2015,07,04,02,56,20.40
2015,07,04,02,57,20.40
2015,07,04,02,58,20.40
2015,07,04,02,59,20.40
2015,07,04,03,00,20.40
2015,07,04,03,01,20.40
2015,07,04,03,02,20.40
2015,07,04,03,06,20.40
2015,07,04,03,07,20.40
2015,07,04,03,08,20.40
2015,07,04,03,09,20.40
2015,07,04,03,10,20.40
2015,07,04,03,11,20.40
2015,07,04,03,12,20.40
2015,07,04,03,13,20.30
2015,07,04,03,14,20.30
2015,07,04,03,15,20.30
2015,07,04,03,16,20.30
2015,07,04,03,17,20.30
2015,07,04,03,18,20.30
2015,07,04,03,19,20.20
2015,07,04,03,20,20.20
2015,07,04,03,21,20.20
2015,07,04,03,22,20.20
2015,07,04,03,23,20.20
2015,07,04,03,24,20.20
2015,07,04,03,25,20.20
2015,07,04,03,26,20.10
2015,07,04,03,27,20.10
2015,07,04,03,28,20.10
2015,07,04,03,29,20.10
2015,07,04,03,30,20.00
2015,07,04,03,31,20.00
2015,07,04,03,32,20.00
2015,07,04,03,33,20.00
2015,07,04,03,34,19.90
2015,07,04,03,35,19.90
2015,07,04,03,36,19.90
2015,07,04,03,37,19.80
2015,07,04,03,38,19.80
2015,07,04,03,39,19.80
2015,07,04,03,40,19.70
2015,07,04,03,41,19.70
2015,07,04,03,42,19.70
2015,07,04,03,43,19.70
2015,07,04,03,44,19.70
2015,07,04,03,45,19.70
2015,07,04,03,46,19.70
2015,07,04,03,47,19.70
2015,07,04,03,48,19.70
2015,07,04,03,49,19.70
2015,07,04,03,50,19.70
2015,07,04,03,51,19.70
2015,07,04,03,52,19.70
2015,07,04,03,53,19.70
2015,07,04,03,54,19.70
2015,07,04,03,55,19.70
2015,07,04,03,56,19.70
2015,07,04,03,57,19.70
2015,07,04,03,58,19.70
2015,07,04,03,59,19.70
2015,07,04,04,00,19.70
2015,07,04,04,01,19.70
2015,07,04,04,02,19.70
2015,07,04,04,03,19.60
2015,07,04,04,04,19.60
2015,07,04,04,05,19.60
2015,07,04,04,06,19.60
2015,07,04,04,07,19.60
2015,07,04,04,08,19.60
2015,07,04,04,09,19.60
2015,07,04,04,10,19.60
2015,07,04,04,11,19.50
2015,07,04,04,12,19.50
2015,07,04,04,13,19.40
2015,07,04,04,14,19.40
2015,07,04,04,15,19.40
2015,07,04,04,16,19.40
2015,07,04,04,17,19.30
2015,07,04,04,18,19.30
2015,07,04,04,19,19.30
2015,07,04,04,20,19.30
2015,07,04,04,21,19.20
2015,07,04,04,22,19.20
2015,07,04,04,23,19.20
2015,07,04,04,24,19.10
2015,07,04,04,25,19.10
2015,07,04,04,26,19.10
2015,07,04,04,27,19.10
2015,07,04,04,28,19.00
2015,07,04,04,29,19.00
2015,07,04,04,30,19.00
2015,07,04,04,31,18.90
2015,07,04,04,32,18.90
2015,07,04,04,33,18.90
2015,07,04,04,34,18.90
2015,07,04,04,35,18.90
2015,07,04,04,36,18.90
2015,07,04,04,37,18.90
2015,07,04,04,38,18.90
2015,07,04,04,39,18.80
2015,07,04,04,40,18.80
2015,07,04,04,41,18.80
2015,07,04,04,42,18.80
2015,07,04,04,43,18.80
2015,07,04,04,44,18.80
2015,07,04,04,45,18.80
2015,07,04,04,46,18.80
2015,07,04,04,47,18.80
2015,07,04,04,48,18.80
2015,07,04,04,49,18.80
2015,07,04,04,50,18.80
2015,07,04,04,51,18.80
2015,07,04,04,52,18.80
2015,07,04,04,53,18.80
2015,07,04,04,54,18.80
2015,07,04,04,55,18.90
2015,07,04,04,56,18.90
2015,07,04,04,57,18.90
2015,07,04,04,58,18.90
2015,07,04,04,59,19.00
2015,07,04,05,00,19.00
2015,07,04,05,01,19.00
2015,07,04,05,02,19.10
2015,07,04,05,03,19.10
2015,07,04,05,04,19.10
2015,07,04,05,05,19.10
2015,07,04,05,06,19.10
2015,07,04,05,07,19.10
2015,07,04,05,08,19.10
2015,07,04,05,09,19.10
2015,07,04,05,10,19.10
2015,07,04,05,11,19.10
2015,07,04,05,12,19.10
2015,07,04,05,13,19.10
2015,07,04,05,14,19.10
2015,07,04,05,15,19.00
2015,07,04,05,16,19.00
2015,07,04,05,17,19.00
2015,07,04,05,18,19.00
2015,07,04,05,19,18.90
2015,07,04,05,20,18.90
2015,07,04,05,21,18.90
2015,07,04,05,22,18.90
2015,07,04,05,23,18.90
2015,07,04,05,24,18.90
2015,07,04,05,25,18.80
2015,07,04,05,26,18.80
2015,07,04,05,27,18.80
2015,07,04,05,28,18.80
2015,07,04,05,29,18.80
2015,07,04,05,30,18.80
2015,07,04,05,31,18.70
2015,07,04,05,32,18.70
2015,07,04,05,33,18.70
2015,07,04,05,34,18.70
2015,07,04,05,35,18.70
2015,07,04,05,36,18.70
2015,07,04,05,37,18.70
2015,07,04,05,38,18.70
2015,07,04,05,39,18.70
2015,07,04,05,40,18.70
2015,07,04,05,41,18.70
2015,07,04,05,42,18.70
2015,07,04,05,43,18.70
2015,07,04,05,44,18.80
2015,07,04,05,45,18.80
2015,07,04,05,46,18.80
2015,07,04,05,47,18.80
2015,07,04,05,48,18.80
2015,07,04,05,49,18.80
2015,07,04,05,50,18.80
2015,07,04,05,51,18.80
2015,07,04,05,52,18.80
2015,07,04,05,53,18.80
2015,07,04,05,54,18.80
2015,07,04,05,55,18.90
2015,07,04,05,56,18.90
2015,07,04,05,57,18.90
2015,07,04,05,58,18.90
2015,07,04,05,59,18.90
2015,07,04,06,00,18.90
2015,07,04,06,01,18.90
2015,07,04,06,02,18.90
2015,07,04,06,03,19.00
2015,07,04,06,04,19.00
2015,07,04,06,05,19.00
2015,07,04,06,06,19.00
2015,07,04,06,07,19.00
2015,07,04,06,08,19.00
2015,07,04,06,09,19.10
2015,07,04,06,10,19.10
2015,07,04,06,11,19.10
2015,07,04,06,12,19.10
2015,07,04,06,13,19.20
2015,07,04,06,14,19.20
2015,07,04,06,15,19.20
2015,07,04,06,16,19.30
2015,07,04,06,17,19.30
2015,07,04,06,18,19.30
2015,07,04,06,19,19.30
2015,07,04,06,20,19.40
2015,07,04,06,21,19.40
2015,07,04,06,22,19.40
2015,07,04,06,23,19.40
2015,07,04,06,24,19.50
2015,07,04,06,25,19.50
2015,07,04,06,26,19.50
2015,07,04,06,27,19.60
2015,07,04,06,28,19.60
2015,07,04,06,29,19.60
2015,07,04,06,30,19.60
2015,07,04,06,31,19.60
2015,07,04,06,32,19.60
2015,07,04,06,33,19.60
2015,07,04,06,34,19.60
2015,07,04,06,35,19.60
2015,07,04,06,36,19.60
2015,07,04,06,37,19.60
2015,07,04,06,38,19.60
2015,07,04,06,39,19.60
2015,07,04,06,40,19.60
2015,07,04,06,41,19.60
2015,07,04,06,42,19.60
2015,07,04,06,43,19.60
2015,07,04,06,44,19.60
2015,07,04,06,45,19.60
2015,07,04,06,46,19.60
2015,07,04,06,47,19.70
2015,07,04,06,48,19.70
2015,07,04,06,49,19.70
2015,07,04,06,50,19.80
2015,07,04,06,51,19.80
2015,07,04,06,52,19.90
2015,07,04,06,53,19.90
2015,07,04,06,54,20.00
2015,07,04,06,55,20.00
2015,07,04,06,56,20.10
2015,07,04,06,57,20.10
2015,07,04,06,58,20.20
2015,07,04,06,59,20.20
2015,07,04,07,00,20.20
2015,07,04,07,01,20.30
2015,07,04,07,02,20.30
2015,07,04,07,03,20.30
2015,07,04,07,04,20.30
2015,07,04,07,05,20.40
2015,07,04,07,06,20.40
2015,07,04,07,07,20.40
2015,07,04,07,08,20.50
2015,07,04,07,09,20.50
2015,07,04,07,10,20.50
2015,07,04,07,11,20.60
2015,07,04,07,12,20.60
2015,07,04,07,13,20.60
2015,07,04,07,14,20.60
2015,07,04,07,15,20.60
2015,07,04,07,16,20.60
2015,07,04,07,17,20.70
2015,07,04,07,18,20.70
2015,07,04,07,19,20.70
2015,07,04,07,20,20.70
2015,07,04,07,21,20.70
2015,07,04,07,22,20.70
2015,07,04,07,23,20.80
2015,07,04,07,24,20.80
2015,07,04,07,25,20.80
2015,07,04,07,26,20.80
2015,07,04,07,27,20.80
2015,07,04,07,28,20.80
2015,07,04,07,29,20.80
2015,07,04,07,30,20.80
2015,07,04,07,31,20.90
2015,07,04,07,32,20.90
2015,07,04,07,33,20.90
2015,07,04,07,34,20.90
2015,07,04,07,35,20.90
2015,07,04,07,36,20.90
2015,07,04,07,37,20.90
2015,07,04,07,38,21.00
2015,07,04,07,39,21.00
2015,07,04,07,40,21.10
2015,07,04,07,41,21.10
2015,07,04,07,42,21.10
2015,07,04,07,43,21.20
2015,07,04,07,44,21.20
2015,07,04,07,45,21.20
2015,07,04,07,46,21.20
2015,07,04,07,47,21.30
2015,07,04,07,48,21.30
2015,07,04,07,49,21.40
2015,07,04,07,50,21.40
2015,07,04,07,51,21.40
2015,07,04,07,52,21.50
2015,07,04,07,53,21.50
2015,07,04,07,54,21.50
2015,07,04,07,55,21.50
2015,07,04,07,56,21.50
2015,07,04,07,57,21.40
2015,07,04,07,58,21.40
2015,07,04,07,59,21.30
2015,07,04,08,00,21.30
2015,07,04,08,01,21.20
2015,07,04,08,02,21.10
2015,07,04,08,03,21.10
2015,07,04,08,04,21.10
2015,07,04,08,05,21.10
2015,07,04,08,06,21.00
2015,07,04,08,07,21.00
2015,07,04,08,08,21.00
2015,07,04,08,09,21.00
2015,07,04,08,10,21.00
2015,07,04,08,11,21.00
2015,07,04,08,12,21.10
2015,07,04,08,13,21.10
2015,07,04,08,14,21.10
2015,07,04,08,15,21.20
2015,07,04,08,16,21.20
2015,07,04,08,17,21.20
2015,07,04,08,18,21.20
2015,07,04,08,19,21.30
2015,07,04,08,20,21.30
2015,07,04,08,21,21.30
2015,07,04,08,22,21.20
2015,07,04,08,23,21.20
2015,07,04,08,24,21.20
2015,07,04,08,25,21.20
2015,07,04,08,26,21.20
2015,07,04,08,27,21.20
2015,07,04,08,28,21.20
2015,07,04,08,29,21.20
2015,07,04,08,30,21.20
2015,07,04,08,31,21.20
2015,07,04,08,32,21.20
2015,07,04,08,33,21.20
2015,07,04,08,34,21.20
2015,07,04,08,35,21.20
2015,07,04,08,36,21.20
2015,07,04,08,37,21.20
2015,07,04,08,38,21.20
2015,07,04,08,39,21.30
2015,07,04,08,40,21.30
2015,07,04,08,41,21.40
2015,07,04,08,42,21.40
2015,07,04,08,43,21.50
2015,07,04,08,44,21.60
2015,07,04,08,45,21.70
2015,07,04,08,46,21.80
2015,07,04,08,47,21.80
2015,07,04,08,48,21.90
2015,07,04,08,49,21.90
2015,07,04,08,50,21.90
2015,07,04,08,51,21.90
2015,07,04,08,52,22.00
2015,07,04,08,53,22.10
2015,07,04,08,54,22.10
2015,07,04,08,55,22.20
2015,07,04,08,56,22.30
2015,07,04,08,57,22.30
2015,07,04,08,58,22.40
2015,07,04,08,59,22.40
2015,07,04,09,00,22.50
2015,07,04,09,01,22.50
2015,07,04,09,02,22.60
2015,07,04,09,03,22.70
2015,07,04,09,04,22.60
2015,07,04,09,05,22.70
2015,07,04,09,06,22.70
2015,07,04,09,07,22.70
2015,07,04,09,08,22.70
2015,07,04,09,09,22.60
2015,07,04,09,10,22.60
2015,07,04,09,11,22.70
2015,07,04,09,12,22.70
2015,07,04,09,13,22.70
2015,07,04,09,14,22.80
2015,07,04,09,15,22.80
2015,07,04,09,16,22.90
2015,07,04,09,17,23.00
2015,07,04,09,18,23.00
2015,07,04,09,19,23.10
2015,07,04,09,20,23.10
2015,07,04,09,21,23.10
2015,07,04,09,22,23.10
2015,07,04,09,23,23.10
2015,07,04,09,24,23.10
2015,07,04,09,25,23.10
2015,07,04,09,26,23.20
2015,07,04,09,27,23.20
2015,07,04,09,28,23.20
2015,07,04,09,29,23.30
2015,07,04,09,30,23.30
2015,07,04,09,31,23.20
2015,07,04,09,32,23.10
2015,07,04,09,33,23.00
2015,07,04,09,34,23.00
2015,07,04,09,35,22.90
2015,07,04,09,36,22.90
2015,07,04,09,37,23.00
2015,07,04,09,38,23.00
2015,07,04,09,39,23.00
2015,07,04,09,40,23.10
2015,07,04,09,41,23.10
2015,07,04,09,42,23.10
2015,07,04,09,43,23.10
2015,07,04,09,44,23.20
2015,07,04,09,45,23.10
2015,07,04,09,46,23.10
2015,07,04,09,47,23.20
2015,07,04,09,48,23.20
2015,07,04,09,49,23.20
2015,07,04,09,50,23.30
2015,07,04,09,51,23.30
2015,07,04,09,52,23.40
2015,07,04,09,53,23.40
2015,07,04,09,54,23.40
2015,07,04,09,55,23.40
2015,07,04,09,56,23.50
2015,07,04,09,57,23.50
2015,07,04,09,58,23.60
2015,07,04,09,59,23.70
2015,07,04,10,00,23.80
2015,07,04,10,01,23.80
2015,07,04,10,02,23.90
2015,07,04,10,03,23.90
2015,07,04,10,04,23.90
2015,07,04,10,05,23.90
2015,07,04,10,06,23.90
2015,07,04,10,07,24.00
2015,07,04,10,08,24.00
2015,07,04,10,09,23.90
2015,07,04,10,10,23.90
2015,07,04,10,11,23.90
2015,07,04,10,12,23.80
2015,07,04,10,13,23.90
2015,07,04,10,14,23.90
2015,07,04,10,15,24.00
2015,07,04,10,16,24.00
2015,07,04,10,17,24.10
2015,07,04,10,18,24.20
2015,07,04,10,19,24.20
2015,07,04,10,20,24.30
2015,07,04,10,21,24.30
2015,07,04,10,22,24.30
2015,07,04,10,23,24.30
2015,07,04,10,24,24.20
2015,07,04,10,25,24.20
2015,07,04,10,26,24.20
2015,07,04,10,27,24.20
2015,07,04,10,28,24.20
2015,07,04,10,29,24.20
2015,07,04,10,30,24.20
2015,07,04,10,31,24.20
2015,07,04,10,32,24.20
2015,07,04,10,33,24.20
2015,07,04,10,34,24.30
2015,07,04,10,35,24.30
2015,07,04,10,36,24.30
2015,07,04,10,37,24.30
2015,07,04,10,38,24.30
2015,07,04,10,39,24.30
2015,07,04,10,40,24.30
2015,07,04,10,41,24.20
2015,07,04,10,42,24.20
2015,07,04,10,43,24.20
2015,07,04,10,44,24.20
2015,07,04,10,45,24.20
2015,07,04,10,46,24.30
2015,07,04,10,47,24.30
2015,07,04,10,48,24.40
2015,07,04,10,49,24.50
2015,07,04,10,50,24.60
2015,07,04,10,51,24.60
2015,07,04,10,52,24.60
2015,07,04,10,53,24.50
2015,07,04,10,54,24.50
2015,07,04,10,55,24.50
2015,07,04,10,56,24.50
2015,07,04,10,57,24.50
2015,07,04,10,58,24.50
2015,07,04,10,59,24.60
2015,07,04,11,00,24.60
2015,07,04,11,01,24.60
2015,07,04,11,02,24.60
2015,07,04,11,03,24.70
2015,07,04,11,04,24.70
2015,07,04,11,05,24.60
2015,07,04,11,06,24.50
2015,07,04,11,07,24.50
2015,07,04,11,08,24.60
2015,07,04,11,09,24.60
2015,07,04,11,10,24.70
2015,07,04,11,11,24.70
2015,07,04,11,12,24.70
2015,07,04,11,13,24.70
2015,07,04,11,14,24.80
2015,07,04,11,15,24.80
2015,07,04,11,16,24.90
2015,07,04,11,17,24.80
2015,07,04,11,18,24.80
2015,07,04,11,19,24.80
2015,07,04,11,20,24.80
2015,07,04,11,21,24.70
2015,07,04,11,22,24.70
2015,07,04,11,23,24.50
2015,07,04,11,24,24.50
2015,07,04,11,25,24.40
2015,07,04,11,26,24.40
2015,07,04,11,27,24.50
2015,07,04,11,28,24.60
2015,07,04,11,29,24.70
2015,07,04,11,30,24.70
2015,07,04,11,31,24.80
2015,07,04,11,32,24.80
2015,07,04,11,33,24.90
2015,07,04,11,34,24.90
2015,07,04,11,35,24.90
2015,07,04,11,36,24.90
2015,07,04,11,37,25.00
2015,07,04,11,38,25.10
2015,07,04,11,39,25.10
2015,07,04,11,40,25.10
2015,07,04,11,41,25.10
2015,07,04,11,42,25.20
2015,07,04,11,43,25.30
2015,07,04,11,44,25.30
2015,07,04,11,45,25.40
2015,07,04,11,46,25.40
2015,07,04,11,47,25.50
2015,07,04,11,48,25.40
2015,07,04,11,49,25.40
2015,07,04,11,50,25.40
2015,07,04,11,51,25.50
2015,07,04,11,52,25.50
2015,07,04,11,53,25.50
2015,07,04,11,54,25.50
2015,07,04,11,55,25.50
2015,07,04,11,56,25.60
2015,07,04,11,57,25.60
2015,07,04,11,58,25.50
2015,07,04,11,59,25.40
2015,07,04,12,00,25.40
2015,07,04,12,01,25.30
2015,07,04,12,02,25.30
2015,07,04,12,03,25.30
2015,07,04,12,04,25.20
2015,07,04,12,05,25.20
2015,07,04,12,06,25.20
2015,07,04,12,07,25.20
2015,07,04,12,08,25.30
2015,07,04,12,09,25.30
2015,07,04,12,10,25.40
2015,07,04,12,11,25.50
2015,07,04,12,12,25.60
2015,07,04,12,13,25.60
2015,07,04,12,14,25.60
2015,07,04,12,15,25.60
2015,07,04,12,16,25.70
2015,07,04,12,17,25.70
2015,07,04,12,18,25.70
2015,07,04,12,19,25.70
2015,07,04,12,20,25.70
2015,07,04,12,21,25.70
2015,07,04,12,22,25.70
2015,07,04,12,23,25.80
2015,07,04,12,24,25.80
2015,07,04,12,25,25.80
2015,07,04,12,26,25.80
2015,07,04,12,27,25.80
2015,07,04,12,28,25.80
2015,07,04,12,29,25.80
2015,07,04,12,30,25.90
2015,07,04,12,31,25.90
2015,07,04,12,32,26.00
2015,07,04,12,33,26.10
2015,07,04,12,34,26.10
2015,07,04,12,35,26.20
2015,07,04,12,36,26.30
2015,07,04,12,37,26.30
2015,07,04,12,38,26.30
2015,07,04,12,39,26.20
2015,07,04,12,40,26.10
2015,07,04,12,41,26.00
2015,07,04,12,42,25.80
2015,07,04,12,43,25.70
2015,07,04,12,44,25.50
2015,07,04,12,45,25.40
2015,07,04,12,46,25.30
2015,07,04,12,47,25.20
2015,07,04,12,48,25.20
2015,07,04,12,49,25.00
2015,07,04,12,50,25.00
2015,07,04,12,51,24.90
2015,07,04,12,52,24.80
2015,07,04,12,53,24.70
2015,07,04,12,54,24.50
2015,07,04,12,55,24.50
2015,07,04,12,56,24.50
2015,07,04,12,57,24.60
2015,07,04,12,58,24.70
2015,07,04,12,59,24.80
2015,07,04,13,00,24.90
2015,07,04,13,01,25.00
2015,07,04,13,02,25.00
2015,07,04,13,03,24.90
2015,07,04,13,04,24.90
2015,07,04,13,05,25.00
2015,07,04,13,06,25.10
2015,07,04,13,07,25.20
2015,07,04,13,08,25.30
2015,07,04,13,09,25.50
2015,07,04,13,10,25.60
2015,07,04,13,11,25.70
2015,07,04,13,12,25.80
2015,07,04,13,13,26.00
2015,07,04,13,14,26.10
2015,07,04,13,15,26.10
2015,07,04,13,16,26.10
2015,07,04,13,17,26.00
2015,07,04,13,18,26.00
2015,07,04,13,19,25.90
2015,07,04,13,20,25.90
2015,07,04,13,21,25.90
2015,07,04,13,22,25.90
2015,07,04,13,23,26.00
2015,07,04,13,24,26.00
2015,07,04,13,25,26.00
2015,07,04,13,26,26.10
2015,07,04,13,27,26.10
2015,07,04,13,28,26.20
2015,07,04,13,29,26.20
2015,07,04,13,30,26.20
2015,07,04,13,31,26.10
2015,07,04,13,32,26.10
2015,07,04,13,33,26.10
2015,07,04,13,34,26.10
2015,07,04,13,35,26.20
2015,07,04,13,36,26.30
2015,07,04,13,37,26.30
2015,07,04,13,38,26.40
2015,07,04,13,39,26.40
2015,07,04,13,40,26.40
2015,07,04,13,41,26.40
2015,07,04,13,42,26.40
2015,07,04,13,43,26.30
2015,07,04,13,44,26.20
2015,07,04,13,45,26.20
2015,07,04,13,46,26.20
2015,07,04,13,47,26.20
2015,07,04,13,48,26.20
2015,07,04,13,49,26.30
2015,07,04,13,50,26.30
2015,07,04,13,51,26.30
2015,07,04,13,52,26.30
2015,07,04,13,53,26.30
2015,07,04,13,54,26.30
2015,07,04,13,55,26.30
2015,07,04,13,56,26.40
2015,07,04,13,57,26.50
2015,07,04,13,58,26.50
2015,07,04,13,59,26.70
2015,07,04,14,00,26.80
2015,07,04,14,01,26.80
2015,07,04,14,02,26.90
2015,07,04,14,03,27.00
2015,07,04,14,04,27.10
2015,07,04,14,05,27.10
2015,07,04,14,06,27.20
2015,07,04,14,07,27.20
2015,07,04,14,08,27.30
2015,07,04,14,09,27.40
2015,07,04,14,10,27.50
2015,07,04,14,11,27.60
2015,07,04,14,12,27.70
2015,07,04,14,13,27.70
2015,07,04,14,14,27.70
2015,07,04,14,15,27.70
2015,07,04,14,16,27.70
2015,07,04,14,17,27.70
2015,07,04,14,18,27.70
2015,07,04,14,19,27.70
2015,07,04,14,20,27.60
2015,07,04,14,21,27.50
2015,07,04,14,22,27.30
2015,07,04,14,23,27.10
2015,07,04,14,24,27.00
2015,07,04,14,25,26.90
2015,07,04,14,26,26.90
2015,07,04,14,27,27.00
2015,07,04,14,28,27.10
2015,07,04,14,29,27.20
2015,07,04,14,30,27.30
2015,07,04,14,31,27.40
2015,07,04,14,32,27.50
2015,07,04,14,33,27.60
2015,07,04,14,34,27.70
2015,07,04,14,35,27.80
2015,07,04,14,36,27.80
2015,07,04,14,37,27.80
2015,07,04,14,38,27.80
2015,07,04,14,39,27.90
2015,07,04,14,40,27.90
2015,07,04,14,41,28.10
2015,07,04,14,42,28.20
2015,07,04,14,43,28.30
2015,07,04,14,44,28.30
2015,07,04,14,45,28.40
2015,07,04,14,46,28.50
2015,07,04,14,47,28.60
2015,07,04,14,48,28.60
2015,07,04,14,49,28.60
2015,07,04,14,50,28.70
2015,07,04,14,51,28.70
2015,07,04,14,52,28.80
2015,07,04,14,53,28.80
2015,07,04,14,54,28.80
2015,07,04,14,55,28.90
2015,07,04,14,56,28.90
2015,07,04,14,57,28.90
2015,07,04,14,58,28.90
2015,07,04,14,59,28.90
2015,07,04,15,00,28.90
2015,07,04,15,01,28.90
2015,07,04,15,02,29.00
2015,07,04,15,03,28.90
2015,07,04,15,04,29.00
2015,07,04,15,05,28.90
2015,07,04,15,06,28.90
2015,07,04,15,07,28.90
2015,07,04,15,08,28.90
2015,07,04,15,09,29.00
2015,07,04,15,10,29.00
2015,07,04,15,11,29.00
2015,07,04,15,12,29.10
2015,07,04,15,13,29.20
2015,07,04,15,14,29.20
2015,07,04,15,15,29.30
2015,07,04,15,16,29.40
2015,07,04,15,17,29.40
2015,07,04,15,18,29.40
2015,07,04,15,19,29.50
2015,07,04,15,20,29.50
2015,07,04,15,21,29.50
2015,07,04,15,22,29.60
2015,07,04,15,23,29.60
2015,07,04,15,24,29.60
2015,07,04,15,25,29.60
2015,07,04,15,26,29.60
2015,07,04,15,27,29.60
2015,07,04,15,28,29.60
2015,07,04,15,29,29.50
2015,07,04,15,30,29.50
2015,07,04,15,31,29.60
2015,07,04,15,32,29.70
2015,07,04,15,33,29.70
2015,07,04,15,34,29.80
2015,07,04,15,35,29.80
2015,07,04,15,36,29.80
2015,07,04,15,37,29.90
2015,07,04,15,38,29.90
2015,07,04,15,39,30.00
2015,07,04,15,40,30.00
2015,07,04,15,41,30.00
2015,07,04,15,42,30.00
2015,07,04,15,43,30.00
2015,07,04,15,44,30.10
2015,07,04,15,45,30.20
2015,07,04,15,46,30.20
2015,07,04,15,47,30.20
2015,07,04,15,48,30.30
2015,07,04,15,49,30.30
2015,07,04,15,50,30.30
2015,07,04,15,51,30.40
2015,07,04,15,52,30.30
2015,07,04,15,53,30.30
2015,07,04,15,54,30.10
2015,07,04,15,55,30.00
2015,07,04,15,56,29.90
2015,07,04,15,57,29.90
2015,07,04,15,58,29.80
2015,07,04,15,59,29.80
2015,07,04,16,00,29.70
2015,07,04,16,01,29.70
2015,07,04,16,02,29.70
2015,07,04,16,03,29.80
2015,07,04,16,04,29.80
2015,07,04,16,05,29.90
2015,07,04,16,06,29.90
2015,07,04,16,07,29.90
2015,07,04,16,08,30.00
2015,07,04,16,09,30.00
2015,07,04,16,10,30.10
2015,07,04,16,11,30.10
2015,07,04,16,12,30.10
2015,07,04,16,13,30.10
2015,07,04,16,14,30.10
2015,07,04,16,15,30.10
2015,07,04,16,16,30.10
2015,07,04,16,17,30.10
2015,07,04,16,18,30.00
2015,07,04,16,19,30.00
2015,07,04,16,20,30.10
2015,07,04,16,21,30.10
2015,07,04,16,22,30.00
2015,07,04,16,23,29.90
2015,07,04,16,24,29.90
2015,07,04,16,25,29.90
2015,07,04,16,26,29.80
2015,07,04,16,27,29.80
2015,07,04,16,28,29.80
2015,07,04,16,29,29.80
2015,07,04,16,30,29.80
2015,07,04,16,31,29.80
2015,07,04,16,32,29.90
2015,07,04,16,33,29.90
2015,07,04,16,34,29.90
2015,07,04,16,35,29.80
2015,07,04,16,36,29.80
2015,07,04,16,37,29.80
2015,07,04,16,38,29.80
2015,07,04,16,39,29.80
2015,07,04,16,40,29.80
2015,07,04,16,41,29.80
2015,07,04,16,42,29.80
2015,07,04,16,43,29.80
2015,07,04,16,44,29.90
2015,07,04,16,45,29.90
2015,07,04,16,46,29.90
2015,07,04,16,47,29.90
2015,07,04,16,48,29.90
2015,07,04,16,49,29.90
2015,07,04,16,50,29.90
2015,07,04,16,51,29.90
2015,07,04,16,52,30.00
2015,07,04,16,53,30.00
2015,07,04,16,54,30.00
2015,07,04,16,55,30.00
2015,07,04,16,56,29.90
2015,07,04,16,57,29.90
2015,07,04,16,58,29.90
2015,07,04,16,59,29.90
2015,07,04,17,00,29.90
2015,07,04,17,01,29.80
2015,07,04,17,02,29.80
2015,07,04,17,03,29.80
2015,07,04,17,04,29.80
2015,07,04,17,05,29.90
2015,07,04,17,06,29.90
2015,07,04,17,07,29.90
2015,07,04,17,08,29.80
2015,07,04,17,09,29.80
2015,07,04,17,10,29.80
2015,07,04,17,11,29.80
2015,07,04,17,12,29.70
2015,07,04,17,13,29.70
2015,07,04,17,14,29.70
2015,07,04,17,15,29.70
2015,07,04,17,16,29.70
2015,07,04,17,17,29.70
2015,07,04,17,18,29.70
2015,07,04,17,19,29.80
2015,07,04,17,20,29.70
2015,07,04,17,21,29.70
2015,07,04,17,22,29.80